Wind_Speed
6 6 5 5 6 7 8 8 9 10 10 9 8 8 7 7 6 7 7 8 8 9 8 7 6 6 6 5 5 5 5 6 6 6 6 6 6 7 8 10 11 12 14 15 17 17 18 18 18 17 18 18 18 19 20 20 20 20 21 21 22 23 23 22 21 19 14 12 14 15 17 18 18 18
6 6 6 6 7 7 8 9 9 9 9 8 8 8 9 9 8 8 8 8 9 10 9 8 8 7 7 6 6 6 6 7 7 7 7 6 7 8 10 11 11 13 14 16 17 17 18 18 17 18 18 19 19 19 20 20 20 19 19 20 22 22 22 21 21 19 15 11 12 14 16 17 18 18
5 6 6 7 7 8 8 9 9 9 8 8 8 9 9 10 9 9 9 9 10 9 10 9 8 8 8 8 7 7 7 7 7 7 6 6 7 9 10 11 12 14 15 16 16 17 18 17 17 18 19 20 20 21 22 21 20 19 19 19 20 21 22 21 20 19 15 11 11 13 15 17 18 19
5 5 5 7 8 8 9 9 9 9 9 9 9 9 9 9 10 10 10 11 11 10 10 10 9 9 10 10 9 9 8 7 7 7 6 6 8 9 11 12 13 14 15 16 17 17 17 17 18 19 20 21 22 23 24 23 22 20 19 19 19 20 21 21 20 19 16 11 10 12 13 16 17 18
4 5 5 6 7 8 9 9 9 9 9 9 10 10 10 9 9 9 10 11 12 11 11 11 11 10 10 11 11 10 10 9 8 7 6 7 9 10 11 13 14 15 16 17 17 17 17 17 18 19 21 22 23 24 25 25 24 23 21 19 19 19 20 20 19 19 16 11 9 10 12 14 16 17
4 4 4 5 6 8 8 8 8 8 9 9 9 9 10 10 9 9 9 10 11 11 10 11 11 10 10 11 11 10 10 10 9 8 7 8 9 11 12 14 15 16 16 17 17 17 17 17 18 20 22 23 24 25 25 26 26 25 24 21 19 19 19 19 19 19 16 11 9 9 10 12 14 16
5 4 4 4 5 7 7 7 7 7 7 7 8 8 9 9 9 9 9 9 9 10 9 8 9 10 9 9 9 8 8 8 7 7 8 9 10 11 13 14 15 16 16 17 17 17 18 18 19 22 23 24 24 25 25 26 26 26 26 24 21 19 18 18 18 18 17 12 9 8 9 10 12 13
6 5 4 4 5 6 6 6 5 5 5 6 6 7 7 8 8 9 9 9 9 9 8 6 6 7 7 6 5 4 5 5 5 6 8 10 11 12 13 14 14 15 16 16 17 18 18 19 20 22 23 24 25 25 25 26 26 27 27 26 23 20 18 18 17 17 17 14 10 8 8 8 9 11
8 7 6 5 5 5 5 4 4 4 4 5 5 5 5 6 6 7 9 9 8 8 7 5 4 5 5 4 2 2 3 4 5 7 10 11 12 13 13 14 14 15 16 17 17 18 19 19 20 22 23 24 25 25 25 26 26 26 27 26 25 23 20 18 18 17 16 15 12 9 8 8 8 9
11 9 8 8 7 6 5 5 4 4 4 4 3 3 3 3 4 5 5 6 6 6 5 4 3 3 3 3 2 2 4 6 8 10 11 12 12 12 13 14 14 14 16 17 17 18 18 19 20 22 23 24 24 25 25 26 26 26 26 26 25 25 22 20 19 18 17 15 13 11 9 8 8 8
13 13 12 11 10 9 8 7 7 6 6 5 4 3 3 3 3 3 3 4 4 4 4 4 3 3 4 5 4 4 6 8 10 11 13 14 13 13 13 14 14 14 16 17 17 17 18 20 21 22 23 24 24 24 25 25 25 26 25 25 24 24 23 21 19 19 18 16 14 12 11 10 9 9
15 15 15 14 13 12 10 10 10 10 9 8 7 6 5 5 5 4 4 4 5 5 5 5 5 6 7 7 8 8 9 10 11 12 12 14 15 15 15 15 15 15 17 18 18 18 19 21 22 23 24 24 25 25 24 25 25 25 24 24 23 23 23 22 20 19 18 17 15 13 12 11 11 10
16 16 16 16 16 15 14 13 13 12 12 11 11 9 8 8 8 7 7 7 7 7 8 8 9 10 11 12 12 13 13 12 12 11 11 11 13 14 16 18 17 16 17 19 19 19 20 22 23 24 25 25 26 26 25 24 24 24 23 22 22 21 21 21 20 19 18 18 17 15 12 12 12 12
15 16 16 17 17 17 17 17 16 16 15 15 14 14 13 12 12 11 11 11 11 11 12 13 13 14 16 16 16 16 15 13 12 12 11 12 12 13 15 18 19 18 17 18 20 21 22 23 25 26 26 26 26 26 25 24 23 23 22 21 21 20 19 19 19 18 17 16 17 16 14 13 12 12
15 15 16 17 17 17 18 19 19 19 19 19 18 18 17 16 16 16 16 16 15 16 16 17 17 18 19 19 18 17 16 14 13 13 13 13 14 15 16 18 21 21 20 19 21 23 24 24 26 28 27 26 25 26 26 24 23 23 22 21 20 19 19 18 17 17 16 15 14 15 15 14 13 13
16 16 17 17 18 18 19 19 20 20 21 21 21 21 20 19 19 19 19 19 19 19 19 20 20 20 20 20 20 18 16 15 14 15 15 15 15 16 18 19 21 23 23 21 21 24 26 26 26 28 27 25 25 26 26 26 24 23 22 22 21 20 18 17 17 16 15 14 13 13 14 14 14 13
19 18 18 18 18 19 19 19 20 21 21 22 22 22 22 21 22 22 22 22 22 21 21 21 21 22 21 20 21 20 17 15 16 16 17 17 17 18 20 20 22 24 25 23 21 24 27 26 26 27 26 25 26 26 27 27 26 25 24 23 22 21 19 18 17 16 16 15 14 13 13 13 13 13
21 21 20 20 20 20 20 20 20 21 22 22 21 21 21 22 22 22 22 23 23 23 22 21 22 23 22 20 20 21 19 17 17 18 19 19 20 21 21 22 23 25 26 25 22 23 27 27 25 26 26 25 26 27 28 28 28 26 24 23 22 21 20 19 18 17 16 16 15 14 13 13 14 14
23 23 22 22 22 22 22 22 22 22 22 22 22 21 21 22 22 22 23 23 24 24 23 22 22 23 23 22 21 21 21 20 20 20 20 21 23 23 22 23 25 26 27 28 25 23 26 27 25 25 26 25 26 28 28 28 29 27 24 22 21 20 19 19 18 17 16 16 16 15 14 14 14 15
25 25 24 24 24 24 24 25 25 25 24 23 22 22 22 23 23 23 24 24 25 24 24 23 23 23 24 24 23 24 24 23 23 23 22 24 25 24 23 23 26 27 29 31 28 24 25 28 26 25 26 26 26 29 29 28 28 28 25 22 19 19 18 17 17 17 16 16 16 16 16 15 15 16
26 27 27 26 26 26 27 28 28 27 26 24 24 24 23 24 23 24 26 26 26 25 24 24 23 23 24 25 25 26 27 27 27 25 24 26 27 25 24 24 26 27 29 33 32 26 25 28 27 27 27 27 27 29 29 28 28 27 25 22 19 18 17 16 16 15 15 16 16 16 16 16 16 17
27 28 28 28 28 27 28 29 29 29 28 26 26 25 25 24 24 25 28 28 27 27 25 24 24 25 25 26 26 27 29 30 30 28 27 28 29 27 26 26 26 27 29 34 34 29 27 29 29 29 28 27 28 30 29 28 27 26 25 23 21 18 17 16 15 15 14 15 15 15 15 16 17 17
28 28 29 29 29 29 29 30 30 31 30 28 28 27 26 25 25 27 28 28 28 28 27 26 26 26 27 27 28 29 30 32 33 32 30 30 30 29 28 28 28 27 29 35 36 32 29 30 30 29 29 27 28 30 29 27 25 24 24 23 21 19 17 16 16 15 15 15 15 14 15 15 16 17
29 29 30 30 30 30 30 31 32 32 32 31 30 30 28 27 27 28 28 28 29 29 29 28 28 27 28 28 29 30 31 33 34 34 33 32 32 31 30 30 30 29 30 35 37 34 31 30 28 29 30 28 26 28 29 27 24 22 22 21 20 18 17 16 16 16 16 15 15 15 15 15 16 16
29 30 32 32 32 32 33 33 33 33 34 33 33 33 32 30 30 29 29 30 30 30 30 30 29 29 29 30 30 31 32 33 35 35 34 33 33 33 32 31 31 31 31 34 36 33 30 28 27 28 30 29 27 26 27 27 25 22 21 21 20 18 17 17 17 16 16 15 15 15 15 15 16 16
31 32 33 33 34 34 34 34 34 35 35 35 36 36 35 34 33 32 31 32 32 32 32 31 30 31 31 32 32 32 32 33 34 34 33 33 33 33 32 31 29 28 29 32 33 31 28 26 27 29 30 29 28 26 27 27 26 24 22 22 22 21 20 19 19 18 17 16 16 15 15 15 15 16
34 34 34 34 35 35 35 35 35 35 36 36 37 38 38 38 37 36 35 35 35 35 34 33 32 33 34 34 35 35 35 35 35 34 34 34 35 34 33 31 30 28 28 31 33 32 29 28 28 29 30 29 28 27 27 27 26 24 24 24 24 24 23 23 22 21 20 19 18 17 17 16 16 16
36 36 36 36 36 36 36 37 37 37 37 38 38 38 38 39 38 38 37 37 37 37 36 35 34 34 35 36 36 37 37 38 37 37 37 37 38 37 36 34 32 31 31 33 34 34 32 30 30 30 31 30 28 27 27 28 27 25 25 25 25 25 25 25 25 24 23 22 21 20 20 20 19 19
36 36 36 36 37 37 37 38 39 39 40 40 40 40 39 39 38 38 38 38 38 37 36 36 36 35 36 37 37 38 38 38 38 39 40 40 41 41 40 38 36 34 34 36 37 38 36 33 32 32 31 31 29 27 27 28 27 26 26 26 26 27 27 27 27 26 26 25 23 22 22 22 22 21
33 34 35 36 37 37 38 39 39 40 41 41 41 41 41 40 39 39 39 39 38 38 37 37 37 36 36 37 38 39 39 38 38 40 41 41 42 44 44 42 39 38 38 38 40 41 41 38 36 34 32 32 30 28 28 27 26 26 27 27 27 27 28 28 27 27 27 26 24 23 23 23 23 22
31 32 33 33 34 35 37 38 39 41 41 41 42 42 42 41 40 40 39 39 39 38 38 38 37 36 36 36 37 38 38 37 38 40 41 41 42 43 44 43 40 39 41 41 42 43 44 43 41 37 34 33 31 30 29 27 25 25 27 28 27 26 27 27 26 26 27 27 25 24 24 24 23 23
32 32 32 32 31 32 32 33 35 37 39 40 42 42 42 42 42 41 40 39 39 39 39 38 36 35 34 34 34 35 35 35 36 38 38 39 40 41 43 42 40 39 40 41 42 44 45 45 44 41 37 34 32 31 30 28 26 26 27 29 29 27 26 25 25 25 27 28 26 24 24 24 24 25
37 36 35 35 34 33 33 32 32 33 34 36 38 40 41 41 41 41 41 41 40 40 39 38 37 35 34 33 33 33 33 34 35 36 37 38 39 39 40 40 39 38 39 40 41 44 45 46 45 43 39 35 33 31 31 30 28 28 28 30 31 29 28 26 26 26 28 29 28 26 25 24 25 27
42 41 41 40 39 38 37 36 35 35 35 35 36 37 38 39 40 41 41 41 41 41 40 39 38 37 36 35 35 35 35 35 37 38 39 39 40 40 40 40 39 39 39 40 41 43 45 46 46 44 41 37 34 33 33 32 31 30 31 32 31 30 29 29 29 29 29 30 29 28 27 26 27 29
45 45 45 45 44 43 42 41 40 40 39 39 39 39 39 39 40 40 40 41 41 42 41 41 40 39 39 38 38 38 38 39 39 40 41 42 42 42 41 41 40 39 40 40 41 43 45 45 46 45 43 40 37 35 35 35 33 33 33 33 32 31 30 31 31 31 31 32 32 30 28 27 28 31
48 48 48 48 48 48 47 46 46 45 45 45 44 44 43 43 43 42 42 42 42 42 43 42 42 42 42 42 42 42 43 43 42 43 43 44 44 43 42 41 41 40 40 40 41 43 44 44 45 45 44 42 40 36 34 36 37 37 35 34 32 32 32 33 34 34 34 34 35 34 32 29 30 34
51 51 51 51 51 51 51 50 50 50 50 50 50 49 49 48 48 48 47 46 46 46 46 46 46 46 46 47 47 47 47 46 45 45 45 45 46 46 44 43 42 41 41 40 41 42 44 44 45 45 44 44 42 38 35 36 39 39 38 35 33 33 35 36 37 37 37 37 37 37 37 36 35 38
54 54 54 54 54 54 54 54 54 53 53 53 53 54 54 54 53 53 53 52 52 51 51 51 51 51 51 51 52 52 52 51 49 48 48 48 48 48 47 45 44 43 43 42 41 42 43 44 44 45 45 45 43 40 38 38 38 38 39 38 36 37 39 40 39 38 38 39 40 41 43 43 41 42
58 58 58 58 58 57 57 57 57 57 57 57 57 56 56 57 57 57 58 58 57 57 57 56 56 56 56 56 55 55 55 55 53 52 52 51 51 50 50 49 47 45 45 44 42 42 43 44 44 45 46 45 44 42 41 39 37 36 38 40 41 42 43 42 41 40 39 40 42 44 45 46 46 46
60 61 61 61 61 61 61 60 60 60 60 60 60 60 59 59 60 60 60 61 61 61 61 61 61 61 60 60 60 59 59 58 57 56 55 55 54 53 52 52 51 49 47 45 43 42 43 45 46 47 47 46 45 44 44 40 36 34 36 40 43 45 45 44 43 41 40 41 43 44 44 46 46 46
63 63 63 63 63 63 63 63 63 63 63 63 63 63 63 63 63 63 63 63 63 64 64 64 64 64 64 64 64 64 63 62 61 60 59 58 57 56 55 54 53 52 50 47 45 43 44 46 48 49 48 47 46 46 45 42 36 33 35 39 43 46 47 46 44 42 41 41 42 42 41 41 42 42
64 65 65 65 66 66 66 66 66 66 66 66 66 65 65 65 65 66 66 66 66 66 66 66 66 66 66 66 66 66 66 65 64 63 62 61 60 59 58 57 56 54 53 51 48 45 45 48 50 51 51 50 49 48 47 44 39 35 34 36 41 45 47 47 46 44 42 41 40 38 37 37 38 38
66 67 67 67 68 68 69 69 69 69 69 69 68 68 68 68 68 68 68 68 69 69 68 68 68 68 68 68 68 67 67 67 67 66 65 64 63 61 61 60 59 57 55 54 51 48 48 49 52 53 53 52 51 51 50 47 43 39 35 35 38 43 46 47 47 46 45 42 39 36 34 34 35 34
68 68 69 69 70 70 70 71 71 71 71 71 71 71 71 70 70 70 70 70 71 71 71 71 70 70 70 69 69 69 69 68 68 67 67 66 65 64 63 62 62 59 57 56 54 53 52 52 53 55 55 54 53 53 52 50 47 44 40 37 37 40 44 46 46 46 45 43 40 39 38 37 36 35
69 70 70 71 71 72 72 73 73 73 74 74 74 73 73 73 73 72 72 73 73 73 73 72 72 72 72 71 71 71 71 70 70 70 69 68 67 66 65 65 64 63 60 58 57 56 55 56 56 57 57 57 56 56 54 52 50 48 45 41 39 39 42 45 47 46 45 43 42 44 44 43 43 41
Wind_Direction
242 241 236 225 222 225 229 233 236 240 248 255 256 251 251 256 258 257 258 258 257 257 260 264 272 283 296 311 324 331 334 337 346 354 355 357 5 14 19 19 16 12 8 7 6 6 7 6 4 2 4 5 3 358 357 358 358 357 359 359 356 356 355 357 2 3 4 10 13 20 27 27 27 27
254 253 252 249 246 244 244 246 247 249 251 254 255 252 251 256 259 257 259 262 264 267 268 268 271 281 292 304 315 326 334 338 346 354 356 4 13 16 16 13 8 4 4 4 4 4 5 4 3 3 5 6 3 1 1 1 359 356 358 358 356 356 356 356 1 3 2 7 13 20 26 27 26 28
268 262 258 257 260 259 256 259 262 264 264 262 260 259 259 262 266 266 264 265 267 271 273 274 276 282 289 300 311 321 329 336 344 351 358 8 12 9 6 2 358 358 0 1 2 3 4 4 4 3 4 6 6 6 7 6 2 357 358 359 357 357 357 356 1 4 1 2 11 19 26 27 25 28
278 274 265 258 259 262 261 263 266 268 269 269 270 271 273 274 276 275 274 275 281 286 288 291 294 292 293 299 308 316 323 330 336 343 354 2 1 360 356 351 351 354 356 359 2 3 4 4 3 2 4 7 9 10 11 11 7 3 1 1 360 358 357 357 1 4 1 356 4 15 24 27 26 26
278 278 272 260 257 259 260 261 262 262 263 264 267 271 275 278 279 279 278 280 287 295 297 300 303 303 299 300 303 309 316 322 326 330 340 347 349 350 348 345 347 351 354 358 1 2 3 3 2 2 5 9 10 11 12 12 12 9 5 3 1 359 358 358 1 5 3 354 355 10 20 26 26 26
273 276 275 266 258 258 260 260 261 261 262 263 263 265 268 274 277 280 281 281 287 295 299 300 304 308 307 304 305 309 312 315 318 322 333 342 343 343 342 342 345 349 353 356 359 0 3 4 2 3 7 9 9 10 10 11 12 12 8 5 1 360 359 359 1 5 4 354 347 0 15 23 27 26
266 271 274 270 263 262 264 266 267 268 269 270 268 266 267 271 276 280 282 283 286 292 297 298 301 306 309 307 308 311 311 312 315 322 334 340 340 339 339 339 342 346 350 353 356 1 5 6 4 4 6 7 6 6 7 8 11 12 10 6 2 360 359 359 0 4 5 357 342 347 5 18 25 28
257 260 263 265 266 269 272 276 280 282 283 283 281 278 276 275 275 274 276 280 282 284 289 291 289 293 300 303 304 307 311 313 317 326 333 335 335 336 336 336 339 343 347 350 355 1 6 7 4 3 3 4 3 1 2 4 7 9 9 6 3 1 359 358 359 1 4 359 342 333 349 6 17 26
250 251 253 254 257 264 270 274 279 285 289 290 290 290 289 287 282 277 277 280 280 280 284 283 271 271 281 288 287 292 303 313 322 327 328 328 330 331 331 334 339 339 342 348 355 360 3 3 2 360 360 360 358 357 357 359 3 5 6 5 3 2 360 356 355 357 2 1 347 329 333 350 2 15
246 247 249 251 252 252 253 254 259 266 271 274 278 281 283 289 289 284 281 280 281 284 286 281 264 251 261 273 276 285 299 309 317 321 320 321 326 329 328 330 334 335 338 345 351 355 358 357 357 356 355 354 353 353 353 355 358 0 2 2 1 1 1 358 353 351 355 360 354 335 324 333 345 354
246 245 245 246 248 249 247 245 245 245 246 245 247 243 237 248 258 259 260 263 269 275 275 272 265 257 262 273 283 293 299 304 311 316 317 317 323 328 326 325 330 333 338 342 346 350 352 352 352 351 350 349 348 348 349 351 354 355 356 358 358 359 0 360 355 349 347 352 355 344 327 322 330 337
248 247 246 245 247 248 248 247 247 247 246 244 242 235 228 227 229 229 230 238 248 256 261 263 265 267 270 275 282 290 297 302 308 314 314 313 318 324 324 323 327 333 337 339 341 345 347 346 346 345 345 344 342 343 345 347 348 349 351 353 355 355 357 359 357 352 345 344 349 349 336 322 321 326
251 251 251 250 250 250 251 251 251 253 253 254 253 249 242 239 239 237 235 237 243 249 257 261 264 269 273 277 283 290 294 299 302 304 302 302 307 313 315 317 322 328 331 332 333 338 342 342 341 341 341 339 337 337 340 342 342 344 345 347 349 351 353 355 356 354 347 341 340 343 341 329 319 318
250 251 253 253 253 253 253 253 254 254 255 257 257 256 254 252 252 251 249 248 250 253 258 262 266 270 274 279 285 288 290 293 293 291 291 293 298 302 305 307 313 319 323 323 326 331 337 339 338 337 337 336 334 332 333 336 336 337 339 340 343 345 347 349 352 352 350 343 337 336 337 334 324 316
244 245 247 249 250 251 252 253 254 255 254 255 256 257 257 256 257 259 259 258 258 259 262 265 269 272 275 280 283 284 286 289 287 285 287 292 295 297 298 301 306 313 319 321 322 325 330 335 335 333 334 333 329 326 326 328 329 330 331 333 335 338 340 342 345 346 345 342 336 333 332 332 328 320
247 244 243 243 244 246 248 250 252 254 254 254 255 256 256 256 256 258 260 262 263 263 265 268 270 272 275 279 282 283 285 286 284 283 286 290 292 293 294 297 301 307 313 318 320 320 324 330 331 329 330 329 325 322 320 322 323 324 325 326 328 330 332 334 336 338 339 336 332 328 326 326 325 322
258 256 254 251 250 249 250 251 253 255 256 257 257 258 259 259 258 258 260 262 263 264 265 267 270 273 274 277 280 283 283 281 280 281 283 287 288 289 292 295 298 301 306 313 317 316 318 324 328 327 326 325 322 319 318 318 319 320 321 322 322 323 324 327 328 330 331 329 326 323 319 318 317 316
261 263 264 265 265 264 262 261 260 261 262 263 265 265 266 266 266 266 265 265 266 266 266 267 269 273 275 275 277 281 281 279 277 277 281 284 285 287 290 294 296 298 302 307 311 312 313 317 323 325 322 320 317 316 317 317 318 318 319 318 318 318 318 319 321 323 323 322 320 317 313 311 310 309
258 262 265 267 269 271 271 270 269 268 269 270 271 271 271 271 272 272 271 271 272 272 272 272 272 274 277 278 277 278 279 278 276 275 278 279 281 283 288 292 294 296 300 304 306 309 310 312 320 322 317 314 313 313 314 316 317 317 318 316 315 315 315 316 316 316 316 315 313 311 308 305 303 302
259 261 263 265 267 269 271 271 271 271 272 274 274 274 273 272 272 272 272 272 273 274 274 274 274 275 278 279 278 277 277 277 276 276 277 277 278 281 285 289 291 294 298 300 303 309 310 310 316 318 312 310 310 310 313 317 317 317 317 315 313 313 313 313 312 311 310 308 305 304 304 302 300 298
257 260 262 263 265 267 268 270 271 271 272 273 273 273 272 272 272 270 270 271 273 274 274 274 273 272 273 274 275 276 277 277 277 277 278 278 280 282 285 286 288 292 295 296 299 306 309 308 312 312 307 306 307 308 312 317 318 318 317 315 314 311 310 309 307 306 304 302 300 300 301 302 301 299
255 257 259 261 263 265 267 270 272 273 274 274 273 272 272 273 271 268 269 273 276 277 276 275 272 271 270 270 271 273 275 277 278 278 278 279 281 285 287 287 287 290 292 292 296 305 307 306 308 306 303 305 306 307 312 317 318 318 317 316 315 312 309 306 303 301 298 296 297 299 300 301 301 300
256 257 259 261 263 265 267 269 271 273 274 274 273 273 272 272 270 268 270 274 276 277 278 276 274 272 271 271 271 272 273 275 277 278 278 279 282 284 287 288 289 290 290 289 294 302 305 304 304 301 300 302 305 306 310 314 314 315 314 315 314 312 309 306 302 300 298 297 298 299 301 302 302 303
257 258 260 261 263 264 265 267 269 271 273 275 275 274 273 272 270 270 272 274 274 275 276 277 276 275 273 272 272 271 272 273 275 277 279 281 283 286 287 288 289 290 289 286 290 297 301 301 300 297 297 300 303 305 308 309 309 311 311 311 310 309 307 305 304 304 305 306 307 308 307 306 305 304
257 259 260 261 262 263 263 265 267 269 272 274 275 275 274 273 272 271 272 273 274 275 275 276 277 277 276 275 274 273 273 274 276 278 280 281 283 284 285 284 284 286 285 284 287 292 297 299 297 294 295 299 302 305 305 303 304 307 308 306 305 303 302 302 303 306 308 310 312 313 312 310 307 305
258 259 260 261 261 261 262 263 264 266 268 270 272 273 274 274 273 272 272 272 273 275 276 276 278 278 278 278 278 278 278 277 278 280 282 283 283 283 283 282 281 281 282 282 285 290 294 296 294 293 294 297 301 304 302 299 300 302 303 302 301 299 298 298 299 300 302 304 306 308 308 307 304 304
258 260 261 261 261 260 260 260 261 262 264 266 267 269 271 272 273 273 274 274 274 275 275 275 276 276 277 279 279 280 281 282 283 284 285 285 285 284 284 284 284 284 283 283 284 287 291 293 292 292 293 295 299 301 299 296 296 297 298 298 297 296 297 297 296 296 296 296 297 298 299 298 298 298
260 261 262 263 263 262 261 260 260 260 261 262 264 265 267 268 270 272 273 274 274 275 274 274 275 276 277 279 280 281 282 283 285 285 285 285 285 285 285 285 286 286 286 285 285 286 287 289 291 292 293 294 297 298 296 293 292 293 294 294 293 294 295 295 295 294 293 292 292 292 291 291 291 291
260 260 261 263 264 264 263 262 261 261 261 262 263 264 265 266 268 270 271 272 273 273 274 274 275 277 279 280 281 282 283 284 285 285 284 284 284 285 285 285 286 287 286 285 285 286 286 287 288 289 291 292 294 294 293 291 290 289 289 290 291 294 294 294 294 294 293 291 289 289 288 286 285 286
259 258 259 261 263 264 265 264 263 261 261 262 263 264 265 266 267 268 270 271 272 272 272 273 274 275 276 278 280 281 282 284 285 285 285 284 284 285 285 285 286 286 285 284 284 285 286 286 286 286 288 290 291 290 290 289 288 285 285 286 289 293 294 294 294 294 292 290 289 288 286 284 284 284
258 258 259 260 262 264 265 266 265 263 261 261 261 262 264 265 266 267 268 270 271 271 271 272 272 273 273 274 276 278 280 282 284 284 284 285 285 285 285 285 285 284 283 282 281 282 283 284 284 285 286 287 288 287 286 285 283 278 278 281 284 285 287 289 291 292 291 291 292 291 288 285 284 283
256 257 260 262 264 265 267 268 269 266 264 262 262 262 263 264 265 266 267 268 269 270 270 271 271 272 273 273 274 276 278 280 282 283 283 284 285 285 285 285 284 282 281 280 280 279 280 282 283 283 284 285 285 284 282 282 278 272 270 273 276 277 277 277 280 284 288 291 295 294 292 290 288 284
257 257 258 259 261 263 266 268 270 269 266 264 264 263 263 264 264 265 265 265 266 267 267 268 269 270 272 273 274 276 278 280 281 281 282 283 284 286 286 286 285 283 280 279 279 279 280 280 281 282 283 284 284 282 280 278 275 271 267 267 269 273 275 273 273 276 283 289 294 295 295 294 291 287
259 258 258 258 258 259 261 263 265 266 266 266 265 265 265 265 265 264 264 264 264 264 265 266 267 268 269 270 272 274 277 279 280 281 281 282 283 285 286 287 287 285 282 280 280 280 280 281 282 283 284 284 284 283 280 277 273 271 268 266 267 270 274 276 276 277 281 285 288 289 290 292 292 290
260 260 260 259 259 259 258 259 260 261 262 263 264 265 266 266 266 265 264 264 264 264 264 265 265 266 267 269 271 273 276 278 279 280 281 281 282 283 285 286 286 285 284 283 282 281 281 282 283 284 285 285 285 283 282 279 275 270 267 267 269 271 274 275 276 277 279 280 280 280 281 283 287 288
262 261 261 261 261 260 259 258 258 258 258 259 260 261 262 264 265 266 265 265 264 264 264 265 265 266 267 268 270 272 275 276 278 279 280 280 281 281 283 284 284 284 284 284 284 283 283 283 283 284 285 285 284 282 280 278 276 274 272 271 270 271 272 273 274 275 275 275 277 279 279 278 281 283
262 262 262 261 261 261 261 260 259 258 257 257 258 259 259 260 261 262 263 264 264 265 265 265 266 266 268 269 271 272 274 276 277 279 279 280 280 280 280 281 282 283 284 285 285 284 284 284 283 283 283 283 282 280 277 274 275 278 279 277 273 269 268 268 269 272 274 276 279 282 281 279 280 281
262 262 262 261 261 261 261 261 260 260 259 258 257 257 258 258 258 259 260 261 262 263 264 264 265 266 267 269 270 272 274 275 277 278 279 279 278 278 278 278 279 280 281 283 284 284 284 283 283 282 281 280 280 280 277 275 276 279 281 280 275 269 266 266 267 270 274 278 281 282 282 281 281 281
262 262 262 262 262 262 261 261 261 260 260 260 259 258 258 258 258 258 258 259 260 260 261 262 263 264 265 267 268 270 271 273 274 275 277 277 277 277 277 277 277 276 277 279 281 282 282 282 281 279 278 278 279 279 278 277 278 280 281 280 276 272 270 270 272 274 277 280 281 282 282 282 281 280
263 262 262 262 262 262 262 262 262 261 261 260 260 260 259 259 259 259 259 259 259 260 260 261 261 262 263 265 266 267 268 270 271 272 273 274 275 275 276 276 276 275 275 276 277 278 279 278 277 276 276 276 277 277 277 277 277 278 277 277 276 275 274 274 276 278 281 282 284 285 286 284 281 279
264 264 264 263 263 263 262 262 262 262 262 261 261 261 260 260 260 260 260 260 260 260 261 261 262 262 263 263 265 265 266 268 269 270 270 271 271 272 273 274 274 274 274 273 273 273 274 274 274 274 274 274 274 274 275 276 276 274 272 272 273 274 275 276 277 279 281 283 286 289 290 287 282 278
264 264 265 265 265 264 264 263 263 263 262 262 262 261 261 261 261 261 260 260 260 260 260 261 261 262 263 263 264 264 265 266 267 268 268 268 269 269 270 271 271 272 272 272 270 269 269 270 271 272 272 272 272 273 274 275 274 270 269 270 271 272 273 275 277 279 280 283 287 290 290 288 284 282
262 263 263 264 264 264 264 264 264 264 264 263 263 263 262 262 261 261 261 261 261 261 261 261 261 261 262 262 263 264 264 265 265 266 266 267 267 267 267 268 269 269 269 269 268 267 266 267 269 270 271 271 271 272 273 274 273 270 268 268 270 271 271 272 274 277 279 283 287 288 287 285 283 281
261 261 262 263 263 263 264 264 264 264 264 264 264 264 263 263 263 262 262 262 262 262 262 261 261 261 261 262 262 263 263 264 264 265 265 265 266 265 265 266 266 266 266 266 266 265 264 265 266 268 270 270 270 270 271 271 272 270 269 268 269 271 271 270 270 272 276 280 285 286 286 286 285 282
260 260 261 261 262 262 263 263 264 264 264 264 264 264 263 263 263 263 263 262 262 262 262 262 262 262 262 262 262 262 263 263 263 263 264 264 264 265 264 264 265 265 264 264 264 263 263 263 264 266 267 269 270 270 270 270 269 269 269 269 269 270 270 268 267 267 270 274 279 282 284 286 288 286
Height
5977 5977 5977 5978 5978 5978 5978 5978 5978 5979 5979 5979 5978 5978 5978 5978 5977 5977 5977 5978 5978 5978 5979 5979 5979 5979 5978 5978 5977 5977 5976 5976 5975 5975 5974 5974 5974 5973 5973 5972 5971 5971 5970 5969 5967 5966 5965 5964 5962 5961 5959 5958 5957 5955 5953 5952 5950 5948 5947 5945 5943 5940 5938 5936 5934 5933 5931 5930 5929 5927 5925 5923 5920 5918
5977 5977 5977 5977 5977 5978 5978 5978 5978 5978 5978 5978 5978 5978 5978 5977 5977 5977 5977 5977 5978 5978 5978 5978 5978 5978 5978 5977 5977 5976 5976 5975 5975 5974 5974 5974 5973 5973 5972 5972 5971 5970 5970 5968 5967 5966 5965 5963 5962 5961 5959 5958 5957 5955 5953 5952 5950 5948 5947 5945 5943 5941 5939 5937 5935 5933 5932 5931 5930 5928 5926 5924 5922 5920
5976 5976 5976 5977 5977 5977 5977 5978 5978 5978 5978 5978 5978 5977 5977 5977 5977 5977 5977 5977 5977 5978 5978 5978 5978 5978 5977 5977 5976 5976 5975 5975 5975 5974 5974 5973 5973 5972 5972 5971 5971 5970 5969 5968 5967 5966 5964 5963 5962 5960 5959 5958 5957 5955 5953 5952 5950 5948 5947 5945 5943 5941 5940 5938 5936 5934 5933 5932 5931 5930 5928 5926 5924 5922
5975 5975 5975 5976 5976 5976 5977 5977 5977 5977 5977 5977 5977 5977 5977 5977 5977 5977 5978 5977 5977 5977 5978 5977 5978 5978 5977 5977 5976 5976 5976 5975 5975 5974 5974 5973 5973 5972 5972 5971 5971 5970 5969 5968 5967 5965 5964 5963 5962 5960 5959 5958 5957 5955 5953 5952 5950 5949 5947 5946 5944 5942 5940 5939 5937 5935 5934 5933 5932 5931 5929 5928 5926 5924
5973 5974 5974 5975 5975 5975 5976 5976 5977 5977 5977 5977 5977 5977 5977 5977 5977 5977 5977 5977 5977 5977 5977 5977 5977 5977 5977 5977 5976 5976 5976 5975 5975 5974 5974 5973 5973 5972 5972 5971 5970 5969 5969 5968 5966 5965 5964 5963 5962 5960 5959 5958 5956 5955 5954 5952 5951 5949 5947 5946 5944 5943 5941 5939 5938 5936 5935 5934 5933 5932 5931 5929 5927 5926
5972 5973 5973 5974 5974 5975 5975 5975 5976 5976 5976 5976 5976 5976 5976 5976 5976 5976 5977 5977 5976 5976 5976 5976 5976 5976 5977 5976 5976 5976 5975 5975 5975 5974 5974 5973 5973 5972 5972 5971 5970 5969 5968 5967 5966 5965 5964 5963 5962 5960 5959 5958 5956 5955 5954 5953 5951 5949 5948 5946 5945 5943 5942 5940 5939 5937 5936 5935 5934 5933 5932 5931 5929 5928
5971 5972 5972 5972 5973 5973 5974 5974 5975 5975 5975 5975 5975 5975 5975 5975 5976 5976 5976 5976 5975 5975 5975 5975 5975 5975 5975 5975 5975 5975 5975 5974 5974 5974 5973 5973 5973 5972 5971 5970 5970 5969 5968 5967 5966 5965 5964 5963 5962 5960 5959 5958 5957 5956 5954 5953 5952 5950 5948 5947 5946 5944 5943 5941 5939 5938 5937 5935 5935 5934 5933 5932 5931 5929
5970 5971 5971 5971 5972 5972 5972 5973 5973 5974 5974 5974 5975 5975 5975 5975 5975 5975 5975 5975 5974 5974 5974 5974 5974 5974 5974 5973 5973 5973 5974 5973 5973 5973 5973 5973 5972 5971 5971 5970 5969 5968 5967 5966 5965 5965 5964 5963 5962 5960 5959 5958 5957 5956 5955 5953 5952 5950 5949 5948 5946 5945 5943 5942 5940 5939 5937 5936 5935 5935 5934 5933 5932 5931
5970 5970 5970 5971 5971 5971 5971 5972 5972 5973 5973 5973 5974 5974 5974 5974 5974 5974 5974 5974 5973 5973 5973 5972 5972 5972 5972 5972 5972 5972 5973 5973 5973 5973 5972 5972 5971 5971 5970 5969 5969 5968 5967 5966 5965 5964 5963 5963 5962 5961 5959 5958 5957 5956 5955 5953 5952 5951 5950 5948 5947 5945 5944 5942 5941 5939 5938 5937 5936 5935 5935 5934 5933 5932
5969 5969 5970 5970 5970 5970 5970 5971 5971 5971 5972 5972 5972 5972 5973 5973 5973 5973 5973 5973 5973 5972 5972 5972 5971 5971 5971 5971 5971 5972 5972 5972 5972 5971 5971 5971 5971 5970 5969 5968 5968 5967 5966 5965 5965 5964 5963 5962 5961 5960 5959 5958 5957 5956 5954 5953 5951 5950 5950 5949 5947 5946 5944 5943 5942 5940 5939 5938 5937 5936 5936 5935 5934 5934
5968 5968 5968 5969 5969 5969 5969 5970 5970 5970 5970 5971 5971 5971 5971 5972 5972 5972 5972 5972 5972 5972 5972 5971 5971 5971 5971 5971 5971 5971 5971 5971 5971 5970 5970 5969 5969 5969 5969 5968 5967 5966 5966 5965 5964 5963 5963 5962 5961 5960 5959 5958 5957 5955 5954 5952 5951 5950 5949 5948 5947 5946 5945 5943 5942 5941 5940 5939 5938 5937 5937 5936 5935 5935
5966 5966 5967 5967 5968 5968 5968 5969 5969 5969 5969 5969 5970 5970 5970 5970 5970 5971 5971 5971 5971 5971 5971 5971 5971 5970 5970 5970 5970 5970 5970 5970 5970 5969 5969 5968 5967 5967 5967 5966 5966 5965 5964 5964 5963 5963 5962 5961 5961 5960 5959 5957 5956 5954 5953 5951 5950 5949 5948 5948 5947 5946 5945 5943 5942 5941 5940 5939 5938 5937 5937 5936 5936 5935
5964 5965 5965 5966 5966 5967 5967 5968 5968 5968 5969 5969 5969 5969 5969 5969 5969 5969 5969 5969 5969 5969 5969 5969 5969 5969 5969 5969 5969 5969 5969 5968 5968 5968 5967 5967 5966 5965 5964 5963 5963 5963 5963 5962 5962 5962 5962 5961 5960 5959 5958 5956 5954 5953 5951 5950 5949 5948 5947 5946 5946 5945 5944 5943 5942 5941 5940 5940 5939 5938 5937 5936 5936 5936
5962 5963 5964 5964 5965 5965 5966 5966 5966 5967 5967 5967 5967 5968 5968 5968 5968 5968 5968 5968 5968 5968 5968 5968 5968 5968 5967 5967 5967 5967 5967 5967 5966 5966 5965 5965 5964 5964 5963 5962 5961 5961 5962 5962 5960 5960 5960 5960 5959 5958 5957 5955 5953 5951 5950 5949 5948 5947 5946 5945 5944 5944 5943 5942 5941 5940 5940 5939 5938 5938 5937 5936 5936 5935
5960 5960 5961 5961 5962 5963 5963 5963 5964 5964 5964 5965 5965 5965 5965 5966 5966 5966 5966 5966 5966 5966 5966 5966 5966 5966 5965 5965 5965 5965 5965 5965 5965 5964 5964 5963 5963 5962 5962 5961 5959 5959 5960 5960 5960 5958 5958 5958 5957 5956 5955 5954 5952 5950 5948 5948 5947 5946 5945 5944 5943 5942 5941 5940 5940 5939 5938 5938 5937 5937 5937 5936 5936 5935
5958 5958 5958 5958 5959 5959 5960 5960 5961 5961 5961 5961 5962 5962 5962 5963 5963 5963 5963 5963 5963 5964 5964 5964 5963 5963 5963 5963 5963 5963 5963 5963 5963 5962 5962 5962 5961 5961 5960 5960 5959 5957 5958 5959 5959 5957 5956 5956 5956 5954 5953 5952 5951 5949 5947 5946 5945 5944 5943 5942 5941 5940 5940 5939 5938 5937 5937 5936 5936 5935 5935 5935 5935 5934
5956 5957 5957 5957 5957 5957 5958 5958 5958 5959 5959 5959 5959 5959 5959 5960 5960 5960 5960 5960 5960 5960 5961 5961 5961 5960 5961 5961 5960 5961 5961 5962 5961 5961 5960 5960 5960 5959 5959 5958 5958 5957 5956 5957 5959 5957 5955 5954 5954 5953 5951 5950 5948 5947 5946 5945 5944 5943 5942 5941 5940 5939 5938 5937 5936 5936 5935 5935 5934 5934 5933 5933 5933 5933
5955 5955 5956 5956 5956 5956 5956 5957 5957 5957 5957 5957 5958 5958 5958 5958 5958 5958 5958 5958 5958 5957 5958 5958 5958 5958 5958 5959 5958 5958 5959 5959 5959 5959 5958 5958 5957 5957 5957 5957 5956 5955 5954 5955 5957 5956 5953 5952 5952 5951 5949 5947 5946 5945 5944 5943 5942 5941 5940 5939 5938 5937 5936 5935 5934 5934 5933 5933 5933 5932 5932 5931 5931 5931
5953 5953 5954 5955 5955 5955 5955 5955 5955 5955 5955 5956 5956 5957 5957 5957 5957 5957 5957 5956 5956 5956 5956 5957 5957 5956 5956 5957 5957 5956 5956 5956 5956 5956 5956 5955 5954 5954 5955 5955 5954 5953 5952 5951 5953 5954 5952 5949 5949 5949 5946 5945 5944 5942 5941 5941 5939 5938 5938 5937 5936 5935 5934 5933 5932 5932 5931 5931 5931 5930 5930 5929 5929 5928
5951 5951 5952 5952 5952 5953 5953 5953 5953 5953 5953 5954 5955 5955 5955 5955 5955 5955 5954 5953 5953 5954 5954 5955 5955 5955 5955 5954 5954 5954 5953 5953 5953 5953 5954 5952 5951 5952 5953 5953 5952 5950 5949 5948 5948 5950 5950 5947 5947 5946 5944 5943 5942 5939 5938 5938 5937 5936 5935 5934 5933 5932 5931 5931 5930 5929 5929 5929 5928 5928 5928 5927 5927 5926
5947 5948 5948 5949 5949 5950 5950 5949 5949 5950 5951 5952 5952 5952 5952 5952 5952 5952 5951 5950 5950 5951 5951 5952 5952 5952 5952 5952 5951 5951 5950 5949 5949 5950 5951 5949 5948 5949 5951 5951 5950 5949 5947 5945 5943 5946 5947 5945 5944 5944 5942 5941 5939 5937 5936 5935 5934 5934 5933 5932 5931 5930 5929 5928 5927 5927 5926 5926 5926 5926 5926 5925 5925 5925
5944 5944 5944 5945 5946 5947 5947 5946 5946 5947 5948 5949 5950 5949 5950 5950 5950 5949 5947 5947 5947 5948 5949 5949 5949 5949 5949 5948 5948 5948 5947 5946 5945 5946 5947 5946 5945 5947 5948 5948 5947 5947 5946 5942 5939 5942 5944 5942 5941 5940 5940 5939 5937 5935 5933 5933 5932 5931 5931 5930 5929 5928 5927 5926 5925 5924 5924 5923 5923 5923 5923 5923 5923 5923
5941 5941 5941 5942 5942 5943 5944 5944 5943 5943 5944 5945 5946 5946 5946 5947 5947 5945 5945 5945 5945 5945 5945 5945 5945 5945 5945 5945 5944 5944 5943 5942 5941 5942 5944 5943 5943 5944 5945 5944 5944 5945 5944 5940 5937 5938 5940 5939 5938 5937 5936 5937 5935 5932 5931 5930 5929 5928 5928 5928 5927 5926 5925 5924 5923 5922 5922 5921 5921 5921 5921 5921 5920 5920
5938 5938 5938 5938 5939 5940 5940 5940 5940 5939 5940 5941 5942 5942 5943 5943 5943 5942 5942 5942 5942 5941 5942 5941 5942 5942 5942 5941 5941 5940 5939 5938 5937 5938 5939 5940 5940 5940 5941 5941 5940 5941 5941 5938 5935 5935 5936 5936 5935 5933 5932 5933 5933 5930 5928 5927 5926 5925 5925 5925 5924 5924 5923 5922 5922 5921 5920 5920 5919 5919 5918 5918 5918 5918
5934 5934 5934 5934 5935 5935 5936 5936 5936 5936 5936 5936 5937 5937 5938 5939 5939 5939 5939 5938 5938 5938 5938 5938 5938 5938 5938 5937 5937 5937 5936 5935 5934 5934 5935 5936 5936 5936 5937 5937 5937 5937 5937 5934 5932 5932 5933 5932 5931 5929 5928 5928 5928 5928 5926 5923 5923 5922 5922 5922 5921 5921 5920 5919 5919 5919 5918 5917 5917 5916 5916 5915 5915 5914
5929 5929 5929 5930 5930 5931 5932 5932 5932 5932 5932 5932 5932 5932 5933 5934 5934 5935 5935 5935 5934 5934 5935 5935 5935 5935 5934 5934 5933 5933 5932 5932 5931 5931 5931 5932 5932 5932 5932 5932 5933 5933 5933 5930 5928 5928 5929 5928 5927 5926 5925 5924 5924 5924 5923 5921 5920 5919 5919 5919 5918 5918 5917 5917 5916 5915 5915 5914 5913 5913 5912 5912 5911 5911
5924 5924 5924 5925 5925 5926 5927 5927 5928 5928 5928 5928 5928 5928 5928 5928 5929 5929 5930 5930 5930 5931 5931 5931 5931 5931 5930 5929 5929 5929 5928 5928 5927 5927 5927 5927 5926 5926 5927 5927 5927 5928 5928 5926 5924 5924 5924 5924 5923 5922 5921 5921 5921 5921 5920 5918 5917 5917 5916 5916 5915 5914 5914 5913 5912 5912 5911 5911 5910 5909 5909 5908 5907 5907
5918 5919 5919 5920 5920 5921 5921 5922 5922 5923 5923 5923 5922 5922 5923 5923 5924 5925 5925 5925 5926 5926 5927 5927 5927 5927 5926 5925 5925 5925 5924 5924 5924 5923 5923 5922 5921 5921 5921 5922 5923 5923 5923 5921 5920 5919 5919 5920 5919 5918 5918 5918 5918 5918 5917 5915 5914 5914 5913 5912 5911 5911 5910 5909 5908 5908 5908 5907 5907 5907 5906 5905 5904 5904
5914 5914 5915 5915 5915 5916 5916 5916 5917 5917 5917 5917 5917 5917 5917 5918 5919 5920 5920 5920 5921 5921 5922 5922 5922 5922 5922 5921 5920 5920 5920 5920 5919 5918 5918 5917 5916 5916 5916 5917 5918 5919 5918 5916 5915 5914 5914 5915 5915 5914 5914 5914 5914 5914 5913 5912 5911 5910 5909 5909 5908 5907 5906 5906 5905 5904 5904 5904 5904 5904 5903 5902 5901 5901
5910 5910 5910 5910 5910 5911 5911 5911 5912 5912 5912 5912 5912 5912 5912 5913 5914 5914 5914 5915 5915 5916 5916 5916 5917 5917 5917 5916 5916 5915 5915 5915 5914 5913 5912 5912 5912 5911 5910 5912 5914 5914 5912 5911 5909 5908 5907 5908 5909 5909 5909 5909 5909 5909 5909 5909 5908 5907 5905 5905 5904 5903 5902 5901 5901 5900 5900 5899 5900 5900 5899 5898 5897 5897
5905 5906 5906 5906 5906 5906 5906 5906 5906 5906 5906 5907 5907 5907 5907 5907 5908 5908 5909 5909 5910 5910 5910 5911 5911 5912 5911 5911 5911 5910 5910 5910 5909 5908 5907 5907 5907 5906 5905 5906 5909 5909 5907 5905 5904 5902 5901 5901 5902 5903 5904 5905 5905 5905 5904 5904 5905 5903 5901 5901 5901 5900 5899 5897 5896 5896 5894 5894 5895 5895 5894 5893 5893 5892
5901 5901 5901 5901 5901 5901 5901 5901 5901 5901 5901 5902 5902 5902 5902 5902 5902 5902 5903 5903 5904 5904 5904 5905 5906 5906 5906 5906 5905 5904 5905 5905 5904 5902 5902 5902 5901 5901 5900 5901 5903 5904 5901 5900 5898 5896 5895 5894 5895 5896 5898 5900 5900 5900 5899 5899 5900 5899 5898 5897 5896 5897 5896 5894 5893 5892 5890 5889 5890 5890 5889 5889 5888 5887
5895 5895 5895 5896 5896 5896 5897 5897 5897 5896 5896 5896 5897 5897 5897 5897 5897 5897 5897 5897 5898 5898 5898 5899 5899 5900 5900 5900 5899 5899 5899 5899 5898 5897 5897 5896 5896 5895 5895 5895 5896 5897 5896 5895 5893 5891 5889 5888 5888 5890 5892 5894 5894 5894 5894 5894 5894 5894 5894 5893 5892 5892 5891 5890 5889 5888 5887 5885 5885 5885 5885 5884 5883 5882
5888 5889 5889 5890 5890 5891 5891 5891 5892 5892 5892 5892 5892 5892 5891 5891 5892 5891 5891 5891 5892 5892 5892 5893 5893 5893 5894 5894 5894 5893 5894 5894 5893 5892 5891 5891 5890 5890 5889 5890 5890 5890 5889 5889 5887 5885 5884 5883 5883 5884 5886 5887 5888 5888 5887 5888 5888 5888 5887 5887 5887 5887 5886 5884 5884 5883 5882 5881 5881 5881 5881 5880 5879 5878
5881 5882 5882 5883 5884 5884 5885 5885 5886 5886 5886 5886 5886 5887 5886 5886 5886 5886 5886 5886 5886 5886 5886 5887 5887 5887 5887 5887 5888 5888 5888 5888 5887 5886 5885 5885 5884 5884 5883 5884 5884 5883 5883 5883 5882 5880 5879 5878 5878 5878 5879 5880 5882 5883 5881 5880 5881 5881 5881 5881 5881 5881 5880 5879 5878 5878 5878 5877 5875 5876 5876 5877 5875 5874
5873 5874 5875 5875 5876 5877 5877 5878 5879 5879 5879 5880 5880 5881 5881 5880 5880 5880 5880 5880 5880 5880 5880 5881 5881 5880 5881 5881 5881 5881 5881 5881 5881 5881 5880 5879 5878 5878 5878 5878 5878 5877 5877 5877 5876 5874 5873 5873 5872 5872 5872 5873 5874 5877 5876 5873 5871 5872 5874 5876 5876 5875 5874 5873 5872 5872 5872 5871 5870 5870 5871 5872 5872 5869
5865 5866 5866 5867 5868 5869 5869 5870 5871 5871 5872 5872 5873 5873 5874 5874 5874 5873 5873 5873 5874 5874 5874 5874 5874 5874 5874 5874 5874 5874 5874 5874 5875 5875 5874 5874 5872 5872 5872 5872 5872 5871 5871 5871 5871 5869 5868 5868 5867 5866 5866 5865 5866 5870 5871 5868 5865 5865 5867 5869 5870 5869 5867 5866 5865 5865 5864 5864 5864 5864 5863 5865 5866 5864
5857 5857 5858 5858 5859 5860 5861 5861 5862 5863 5863 5864 5865 5865 5866 5866 5866 5866 5866 5866 5866 5866 5866 5866 5866 5867 5867 5866 5866 5866 5866 5867 5867 5868 5867 5867 5866 5865 5865 5866 5866 5866 5865 5865 5865 5864 5862 5862 5861 5860 5859 5858 5859 5862 5864 5863 5862 5861 5860 5861 5862 5861 5859 5858 5859 5859 5859 5858 5858 5857 5856 5856 5858 5858
5849 5849 5850 5850 5850 5851 5852 5853 5853 5854 5854 5855 5856 5857 5857 5858 5858 5858 5858 5858 5858 5858 5858 5858 5858 5858 5858 5858 5858 5859 5859 5859 5860 5860 5860 5859 5859 5858 5858 5858 5859 5859 5859 5859 5859 5858 5856 5855 5855 5853 5852 5852 5853 5854 5855 5857 5859 5858 5855 5853 5853 5852 5851 5851 5852 5853 5854 5853 5851 5850 5849 5849 5849 5849
5840 5840 5841 5841 5842 5842 5843 5843 5844 5845 5845 5846 5846 5847 5848 5849 5849 5850 5850 5850 5850 5850 5850 5850 5850 5850 5850 5850 5850 5850 5851 5851 5852 5852 5852 5852 5852 5851 5851 5851 5851 5852 5852 5852 5853 5852 5850 5848 5847 5846 5845 5846 5847 5846 5846 5849 5853 5854 5851 5847 5845 5843 5844 5844 5845 5846 5847 5846 5844 5843 5843 5841 5840 5840
5830 5830 5831 5832 5832 5833 5833 5834 5834 5835 5835 5836 5837 5837 5838 5839 5840 5840 5840 5840 5841 5841 5841 5841 5841 5841 5842 5842 5841 5842 5843 5843 5843 5844 5844 5844 5844 5844 5843 5843 5843 5844 5844 5845 5846 5846 5845 5841 5839 5838 5838 5839 5839 5839 5839 5842 5846 5848 5846 5843 5839 5837 5837 5837 5837 5839 5840 5839 5837 5836 5836 5834 5832 5832
5821 5821 5821 5821 5822 5822 5823 5823 5824 5825 5825 5826 5826 5827 5828 5829 5829 5830 5830 5831 5831 5831 5832 5832 5832 5832 5832 5833 5833 5833 5833 5834 5835 5835 5835 5835 5835 5835 5835 5835 5835 5836 5836 5836 5837 5839 5838 5835 5832 5831 5831 5831 5831 5831 5832 5834 5837 5840 5840 5838 5835 5832 5831 5830 5830 5831 5832 5832 5831 5830 5829 5827 5825 5826
5811 5812 5812 5812 5812 5812 5812 5812 5813 5813 5814 5815 5815 5816 5817 5818 5818 5819 5819 5820 5820 5821 5821 5822 5823 5823 5823 5823 5823 5823 5824 5825 5825 5826 5826 5826 5826 5826 5827 5826 5826 5827 5828 5828 5829 5830 5830 5828 5826 5824 5823 5823 5824 5823 5824 5826 5828 5830 5832 5832 5830 5827 5825 5825 5824 5823 5824 5824 5824 5824 5823 5821 5820 5821
5802 5802 5802 5802 5802 5801 5801 5802 5802 5802 5803 5804 5804 5805 5806 5807 5807 5808 5808 5809 5809 5810 5810 5811 5812 5813 5813 5813 5814 5814 5814 5815 5815 5816 5816 5816 5816 5817 5817 5817 5817 5818 5819 5819 5820 5821 5821 5820 5819 5817 5815 5816 5816 5815 5816 5818 5820 5821 5823 5824 5824 5822 5820 5819 5818 5817 5818 5818 5817 5816 5815 5814 5813 5814
5792 5792 5792 5792 5792 5791 5791 5791 5792 5792 5792 5792 5793 5794 5794 5795 5796 5797 5797 5797 5797 5798 5799 5800 5801 5801 5802 5803 5803 5804 5804 5804 5805 5806 5806 5807 5807 5807 5807 5807 5807 5808 5809 5810 5810 5811 5812 5812 5811 5809 5808 5808 5808 5807 5807 5809 5811 5812 5814 5815 5816 5816 5814 5812 5811 5811 5812 5813 5812 5809 5807 5806 5805 5806